Location: Hanover
(52.3667°N, 9.7167°E)
Time: 13:41:06
(UTC+02:00)

ACS3 Solar Sail - Visible Passes

Search period start: 20 September 2024 00:00
Search period end: 30 September 2024 00:00
Orbit: 970 x 1036 km, 97.4° (Epoch: 19 September)

Date Brightness Start Highest point End Pass type
(mag) Time Alt. Az. Time Alt. Az. Time Alt. Az.
20 Sep 2.0 20:48:39 10° SSE 20:54:57 61° ENE 21:01:15 10° N visible
20 Sep 3.4 22:33:50 10° SSW 22:39:21 32° W 22:45:00 10° NNW visible
21 Sep 1.9 21:21:56 13° SSE 21:27:45 86° WSW 21:34:13 10° NNW visible
21 Sep 4.1 23:08:15 10° SW 23:12:41 19° W 23:17:07 10° NW visible
22 Sep 2.5 20:11:04 10° SE 20:16:51 37° ENE 20:22:37 10° N visible
22 Sep 2.5 21:55:14 14° S 22:00:40 54° W 22:06:57 10° NNW visible
22 Sep 4.5 23:44:47 10° W 23:46:11 11° WNW 23:47:34 10° WNW visible
23 Sep 2.0 20:43:14 11° SE 20:49:23 58° ENE 20:55:38 10° N visible
23 Sep 3.3 22:28:28 12° SSW 22:33:43 33° W 22:39:25 10° NNW visible
24 Sep 1.9 21:16:26 14° SSE 21:22:01 89° WSW 21:28:26 10° NNW visible
24 Sep 4.0 23:02:19 10° SW 23:06:53 20° W 23:11:27 10° NW visible
25 Sep 2.6 20:05:18 10° SE 20:11:00 36° ENE 20:16:41 10° N visible
25 Sep 2.4 21:49:35 16° S 21:54:46 56° W 22:01:03 10° NNW visible
25 Sep 4.4 23:38:16 10° W 23:40:12 11° WNW 23:42:08 10° WNW visible
26 Sep 2.0 20:37:26 11° SE 20:43:22 55° ENE 20:49:33 10° N visible
26 Sep 3.2 22:22:40 13° SSW 22:27:38 35° W 22:33:24 10° NNW visible
27 Sep 1.8 21:10:30 16° SSE 21:15:50 87° ENE 21:22:14 10° NNW visible
27 Sep 3.9 22:55:56 10° SW 23:00:37 21° W 23:05:20 10° NW visible
28 Sep 2.6 19:59:06 10° ESE 20:04:43 34° ENE 20:10:18 10° N visible
28 Sep 2.3 21:43:29 17° S 21:48:25 60° W 21:54:42 10° NNW visible
28 Sep 4.4 23:31:22 10° W 23:33:46 12° WNW 23:36:09 10° NW visible
29 Sep 2.1 20:31:13 12° SE 20:36:55 52° ENE 20:43:02 10° N visible
29 Sep 3.1 22:16:26 15° SSW 22:21:06 36° W 22:26:56 10° NNW visible
